Regional Weather Roundup
Issued by NWS

Home | Current Version | Previous Version | Text Only | Print | Product List | Glossary Off
Versions: 1 2 3 4 5 6 7 8 9 10 11 12 13 14 15 16 17 18 19 20 21 22 23 24 25 26 27 28 29 30 31 32 33 34 35 36 37 38 39 40 41 42 43 44 45 46 47 48 49 50

000
ASUS45 KABQ 240401
RWRNM
NEW MEXICO REGIONAL WEATHER ROUNDUP
NATIONAL WEATHER SERVICE ALBUQUERQUE NM
1000 PM MDT TUE MAY 23 2017

NOTE: "FAIR" MEANS FEW OR NO CLOUDS BELOW 12,000 FEET AGL WITH NO
       SIGNIFICANT WEATHER OR OBSTRUCTIONS TO VISION.

      THIS PRODUCT IS RELEASED AS TWO VERSIONS.  ONE VERSION NEAR
      THE TOP OF THE HOUR CONTAINING PRELIMINARY DATA FROM ALBUQUERQUE
      AND OTHER STATIONS.  A FINAL VERSION WITH ADDITIONAL DATA IS
      ISSUED ABOUT 10 MINUTES AFTER THE HOUR.

NMZ501-503-504-510>518-240500-
NORTHWEST PLATEAU/NORTHCENTRAL MOUNTAINS

CITY           SKY/WX    TMP DP  RH WIND       PRES   REMARKS
FARMINGTON     FAIR      63  28  26 NW10      30.09R
LOS ALAMOS     FAIR      61   9  13 W18G26    30.15R
SANTA FE       FAIR      56  37  49 SE17      30.12R
TAOS           FAIR      48  16  27 CALM      30.16R
ANGEL FIRE     FAIR      40  32  75 CALM      30.24R

$$
NMZ402-403-502-505>509-240500-
WESTCENTRAL MOUNTAINS/SOUTHWEST MOUNTAINS

CITY           SKY/WX    TMP DP  RH WIND       PRES   REMARKS
GALLUP         FAIR      60  23  24 NW6       30.19R
GRANTS         FAIR      58  23  25 NW16      30.18R
SILVER CITY    FAIR      67  18  15 N12       30.06R

$$
NMZ407-409-411-412-240500-
SOUTHERN DESERTS

CITY           SKY/WX    TMP DP  RH WIND       PRES   REMARKS
DEMING         FAIR      80  16   9 NW13      29.95R
LAS CRUCES     FAIR      69  37  29 SE10      30.00R
HOLLOMAN AFB   FAIR      68  37  32 S12       30.03R
ALAMOGORDO     FAIR      63  36  36 S5        30.01R
T OR C         FAIR      72  35  25 VRB5      30.01R

$$
NMZ519>523-240500-
CENTRAL VALLEYS/CENTRAL HIGHLANDS

CITY           SKY/WX    TMP DP  RH WIND       PRES   REMARKS
ALBUQUERQUE    FAIR      69  19  15 N5        30.08R
DOUBLE EAGLE   CLEAR     61  23  23 NW6       30.11R
MORIARTY ARPT  FAIR      55  32  42 SE7       30.16R
CLINES CORNERS FAIR      47  32  56 E12       30.20R
BELEN          FAIR      64  17  16 N9        30.07R
SOCORRO        FAIR      70  15  12 NW6       30.05R

$$
NMZ524>526-539-540-240500-
SOUTHCENTRAL MOUNTAINS

CITY           SKY/WX    TMP DP  RH WIND       PRES   REMARKS
RUIDOSO        NOT AVBL

$$
NMZ527>531-240500-
NORTHEAST HIGHLANDS/NORTHEAST PLAINS

CITY           SKY/WX    TMP DP  RH WIND       PRES   REMARKS
LAS VEGAS      CLOUDY    47  32  56 SE9       30.19R
RATON          FAIR      44  33  65 N9        30.15R
CLAYTON        FAIR      44  35  70 NW7       30.10S

$$
NMZ532>537-240500-
EASTCENTRAL PLAINS

CITY           SKY/WX    TMP DP  RH WIND       PRES   REMARKS
SANTA ROSA     FAIR      52  37  57 E8        30.12R
TUCUMCARI      MOCLDY    56  43  61 CALM      30.07R
CANNON AFB     FAIR      53  41  62 NE10      30.11R
CLOVIS AIRPORT CLOUDY    55  36  47 NE6       30.10R

$$
NMZ028-029-538-240500-
SOUTHEAST PLAINS

CITY           SKY/WX    TMP DP  RH WIND       PRES   REMARKS
ROSWELL        FAIR      58  31  35 SW6       30.07R
ARTESIA        FAIR      63  32  31 CALM      30.07R
CARLSBAD       FAIR      62  42  47 SE7       30.05R
HOBBS          FAIR      57  34  41 CALM      30.08R


$$




USA.gov is the U.S. government's official web portal to all federal, state and local government web resources and services.